Location: *
(51.5000°N, 0.1100°W)
Time: 16:05:52
(UTC+00:00)

USA 234 - Pass Details

Date: 25 May 2024
Orbit: 1100 x 1107 km, 123.0° (Epoch: 16 June)

Event Time Altitude Azimuth Distance (km) Brightness Sun altitude
Rises 01:11:37 0° 142° (SE) 3,912 5.8 -15.7°
Reaches altitude 10° 01:14:12 10° 147° (SSE) 2,956 5.2 -15.6°
Maximum altitude 01:20:30 49° 222° (SW) 1,389 3.4 -15.2°
Drops below altitude 10° 01:26:49 10° 296° (WNW) 2,965 5.6 -14.9°
Sets 01:29:25 0° 302° (WNW) 3,924 6.3 -14.7°
